Total_Precipitation_Accumulation
1.58 1.90 2.22 2.55 3.09 3.14 3.00 3.11 3.31 3.47 3.59 3.88 3.98 4.21 4.53 4.70 4.83 4.88 4.78 4.75 4.64 4.72 4.75 4.57 4.35 4.22 4.20 4.10 4.04 3.85 3.63 3.36 3.21 3.10 2.75 2.27 2.00 1.99 1.97 1.96 1.95 1.93 1.95
1.92 2.05 2.22 2.62 3.11 3.28 3.30 3.36 3.61 3.92 4.15 4.39 4.84 5.12 5.36 5.56 5.73 5.75 5.34 5.17 5.07 4.95 4.87 4.89 4.81 4.60 4.40 4.20 4.02 3.94 3.77 3.43 3.28 3.22 3.09 2.64 2.23 1.86 1.62 1.63 1.60 1.62 1.79
2.06 2.14 2.25 2.63 2.98 3.17 3.32 3.47 3.70 4.15 4.72 5.09 5.54 5.93 6.09 6.12 5.95 5.66 5.53 5.40 5.29 5.16 5.01 4.87 4.64 4.49 4.36 4.19 3.99 3.80 3.70 3.47 3.31 3.21 3.25 2.96 2.55 2.07 1.72 1.52 1.43 1.41 1.52
2.06 2.20 2.37 2.64 2.95 3.19 3.34 3.66 4.13 4.76 5.33 5.81 6.34 6.82 6.94 6.77 6.46 6.00 5.57 5.32 5.09 4.79 4.54 4.41 4.29 4.11 3.82 3.60 3.43 3.34 3.21 3.08 2.93 2.92 2.82 2.67 2.51 2.46 2.22 1.90 1.73 1.65 1.61
1.77 2.02 2.19 2.39 2.75 2.98 3.23 3.60 4.15 4.85 5.56 6.39 7.08 7.50 7.42 7.08 6.66 5.99 5.42 4.95 4.54 4.17 3.91 3.76 3.58 3.36 3.01 2.66 2.53 2.61 2.69 2.68 2.60 2.59 2.60 2.56 2.41 2.35 2.28 2.13 1.95 1.85 1.74
1.53 1.61 1.70 1.98 2.32 2.63 2.95 3.39 4.00 4.71 5.37 6.02 6.56 6.79 6.70 6.50 5.99 5.29 4.68 4.28 3.94 3.58 3.22 2.91 2.61 2.38 2.21 2.01 1.95 1.97 2.06 2.23 2.34 2.47 2.49 2.49 2.39 2.33 2.32 2.21 2.14 2.05 1.92
1.46 1.44 1.47 1.70 2.04 2.26 2.64 3.08 3.52 4.16 4.58 4.91 5.33 5.53 5.55 5.33 5.04 4.57 4.11 3.67 3.18 2.83 2.53 2.23 2.11 1.96 1.85 1.77 1.72 1.69 1.66 1.76 1.91 2.05 2.18 2.27 2.27 2.28 2.33 2.40 2.37 2.18 2.03
1.38 1.42 1.52 1.67 1.92 2.07 2.26 2.48 2.80 3.16 3.34 3.38 3.62 3.88 3.89 3.85 3.73 3.45 3.14 2.84 2.48 2.11 1.85 1.63 1.51 1.48 1.50 1.43 1.46 1.49 1.49 1.51 1.57 1.65 1.82 1.96 2.01 2.05 2.06 2.09 2.17 2.20 2.09
1.27 1.40 1.47 1.46 1.52 1.61 1.70 1.80 1.96 2.13 2.22 2.30 2.34 2.50 2.53 2.52 2.44 2.29 2.06 1.85 1.69 1.47 1.30 1.20 1.19 1.14 1.14 1.17 1.17 1.18 1.23 1.32 1.37 1.37 1.44 1.53 1.59 1.66 1.74 1.82 1.88 1.99 2.03
1.18 1.29 1.36 1.32 1.31 1.31 1.39 1.46 1.52 1.58 1.64 1.71 1.64 1.65 1.70 1.70 1.63 1.52 1.45 1.33 1.22 1.11 1.04 1.00 0.94 0.86 0.82 0.82 0.87 0.92 0.97 1.03 1.12 1.15 1.17 1.24 1.28 1.38 1.47 1.59 1.67 1.69 1.75
1.10 1.18 1.17 1.14 1.12 1.11 1.14 1.22 1.25 1.23 1.24 1.25 1.22 1.21 1.18 1.17 1.19 1.19 1.15 1.05 0.95 0.83 0.77 0.71 0.67 0.65 0.66 0.69 0.74 0.79 0.83 0.87 0.93 1.01 1.06 1.09 1.07 1.14 1.21 1.24 1.28 1.40 1.47
1.19 1.21 1.13 1.05 0.99 0.98 0.98 1.02 1.03 1.02 1.08 1.02 0.94 0.95 0.90 0.85 0.89 0.92 0.85 0.80 0.76 0.67 0.60 0.54 0.52 0.52 0.54 0.57 0.60 0.64 0.68 0.77 0.82 0.86 0.90 0.91 0.91 0.94 0.98 1.02 1.03 1.12 1.21
1.57 1.43 1.25 1.14 1.09 1.04 0.96 0.88 0.90 0.88 0.90 0.89 0.83 0.82 0.79 0.77 0.78 0.80 0.75 0.68 0.66 0.63 0.56 0.50 0.49 0.47 0.46 0.47 0.48 0.50 0.53 0.61 0.70 0.74 0.78 0.79 0.79 0.77 0.75 0.80 0.87 0.94 1.02
1.75 1.56 1.34 1.24 1.20 1.11 1.01 0.94 0.95 0.87 0.80 0.79 0.74 0.71 0.70 0.69 0.68 0.70 0.71 0.64 0.56 0.51 0.50 0.48 0.47 0.44 0.41 0.41 0.40 0.39 0.43 0.48 0.53 0.56 0.60 0.64 0.67 0.68 0.69 0.69 0.81 0.89 1.01
1.68 1.59 1.50 1.40 1.33 1.24 1.16 1.05 0.97 0.87 0.81 0.76 0.72 0.68 0.64 0.61 0.57 0.58 0.58 0.55 0.53 0.46 0.43 0.42 0.42 0.37 0.32 0.28 0.28 0.32 0.38 0.45 0.46 0.49 0.48 0.47 0.51 0.59 0.62 0.62 0.70 0.82 0.97
1.78 1.70 1.63 1.53 1.48 1.37 1.31 1.22 1.10 1.04 0.94 0.85 0.82 0.75 0.69 0.60 0.57 0.54 0.52 0.50 0.47 0.44 0.42 0.41 0.39 0.34 0.26 0.25 0.25 0.26 0.35 0.45 0.48 0.46 0.43 0.39 0.36 0.40 0.48 0.51 0.58 0.71 0.82
1.87 1.77 1.77 1.75 1.67 1.61 1.51 1.36 1.21 1.11 0.91 0.78 0.74 0.71 0.65 0.60 0.56 0.48 0.46 0.48 0.51 0.49 0.45 0.42 0.41 0.43 0.36 0.24 0.20 0.22 0.32 0.46 0.45 0.43 0.45 0.39 0.36 0.42 0.50 0.50 0.48 0.53 0.56
2.03 1.91 1.83 1.79 1.70 1.61 1.48 1.29 1.10 0.92 0.76 0.68 0.65 0.59 0.54 0.55 0.55 0.50 0.49 0.51 0.53 0.51 0.49 0.46 0.47 0.51 0.40 0.26 0.17 0.21 0.31 0.41 0.37 0.36 0.40 0.47 0.49 0.42 0.44 0.49 0.53 0.58 0.59
2.04 1.93 1.79 1.71 1.59 1.40 1.23 1.12 0.92 0.80 0.73 0.68 0.64 0.55 0.48 0.51 0.54 0.53 0.53 0.57 0.55 0.55 0.53 0.52 0.55 0.57 0.45 0.30 0.23 0.26 0.34 0.40 0.39 0.37 0.34 0.34 0.38 0.37 0.43 0.52 0.66 0.69 0.73
1.80 1.75 1.58 1.44 1.37 1.19 1.02 0.97 0.85 0.77 0.73 0.65 0.60 0.54 0.50 0.50 0.54 0.58 0.59 0.55 0.55 0.52 0.47 0.50 0.58 0.57 0.49 0.34 0.27 0.28 0.32 0.39 0.45 0.48 0.46 0.37 0.34 0.36 0.40 0.53 0.70 0.78 0.78
1.49 1.49 1.39 1.31 1.16 0.98 0.95 1.00 0.95 0.80 0.64 0.53 0.52 0.54 0.52 0.51 0.50 0.54 0.57 0.54 0.49 0.50 0.49 0.50 0.52 0.55 0.42 0.31 0.25 0.29 0.34 0.36 0.41 0.48 0.54 0.48 0.39 0.37 0.39 0.46 0.61 0.72 0.72
1.17 1.25 1.28 1.20 1.08 0.97 0.95 0.95 0.91 0.72 0.60 0.58 0.59 0.56 0.52 0.43 0.42 0.51 0.54 0.50 0.49 0.51 0.52 0.53 0.56 0.53 0.39 0.28 0.23 0.26 0.30 0.31 0.39 0.52 0.51 0.49 0.45 0.41 0.42 0.44 0.56 0.65 0.79
0.97 1.02 1.06 1.02 1.00 0.93 0.93 0.91 0.79 0.61 0.57 0.62 0.59 0.54 0.47 0.41 0.42 0.47 0.49 0.45 0.44 0.42 0.41 0.43 0.49 0.44 0.35 0.31 0.24 0.24 0.25 0.26 0.33 0.44 0.47 0.45 0.44 0.47 0.57 0.59 0.63 0.76 0.97
0.80 0.85 0.93 0.93 0.90 0.82 0.80 0.80 0.68 0.61 0.64 0.66 0.58 0.49 0.43 0.37 0.35 0.37 0.35 0.35 0.34 0.34 0.34 0.35 0.37 0.35 0.30 0.24 0.20 0.22 0.24 0.24 0.28 0.36 0.47 0.56 0.61 0.68 0.81 0.90 0.96 0.98 0.99
0.72 0.76 0.86 0.86 0.75 0.68 0.64 0.59 0.60 0.62 0.67 0.63 0.52 0.45 0.37 0.31 0.31 0.27 0.22 0.20 0.20 0.19 0.21 0.20 0.19 0.21 0.20 0.14 0.15 0.17 0.21 0.23 0.26 0.31 0.46 0.68 0.80 0.89 0.93 0.96 1.01 0.99 0.91
0.64 0.70 0.70 0.67 0.59 0.54 0.53 0.47 0.49 0.52 0.53 0.48 0.41 0.34 0.29 0.27 0.22 0.21 0.19 0.13 0.11 0.11 0.13 0.13 0.12 0.11 0.11 0.11 0.11 0.12 0.15 0.18 0.23 0.30 0.52 0.70 0.78 0.84 0.88 0.89 0.87 0.83 0.78